Regional Weather Roundup
Issued by NWS Midland/Odessa, TX

Skip options and go directly to product.
Home | Oldest Version | Previous Version | Current Version | All | Graphics & Text | Save Text | Print | Product List | Glossary On

Skip product version selection by date and time.   
742
ASUS44 KMAF 240810
RWRMAF
MIDLAND AREA WEATHER ROUNDUP
NATIONAL WEATHER SERVICE MIDLAND TX
300 AM CDT WED AUG 24 2016

...IN SOUTHWEST TEXAS AND SOUTHEAST NEW MEXICO...

CITY           SKY/WX    TMP DP  RH WIND       PRES   REMARKS
ALPINE         CLEAR     67  63  89 W5        30.24F
ANDREWS        NOT AVBL
ARTESIA        CLOUDY    64  64 100 SW13      30.14S
BIG SPRING     CLEAR     73  63  72 SE8       30.14F
CARLSBAD       LGT RAIN  64  61  90 S7        30.14R
DRYDEN           N/A     78  63  59 SE12      30.06F
FORT STOCKTON  MOCLDY    75  64  68 S9        30.09F
GUAD PASS      LGT RAIN  59  59 100 NE24        N/A  VSB 1/2
HOBBS          LGT RAIN  63  63 100 NE12      30.17F
MARFA          CLEAR    N/A N/A N/A SE3       30.22F HAZE
MIDLAND AIRPK  MOCLDY    76  62  60 S5        30.13S
MIDLAND INTL   MOCLDY    74  65  73 CALM      30.12S
ODESSA         CLOUDY    74  67  78 SW3       30.13F
PECOS          MOCLDY    71  66  84 N7        30.06F
PRESIDIO       NOT AVBL
SEMINOLE       CLOUDY    65  62  89 NW10      30.18F
SNYDER           N/A     73  64  73 S7        30.13F
WINK           LGT RAIN  67  64  90 NE12      30.11F
$$
...OTHER STATIONS IN TEXAS...

CITY           SKY/WX    TMP DP  RH WIND       PRES   REMARKS
ABILENE        CLOUDY    75  67  76 S12       30.11S
AMARILLO       CLOUDY    74  62  66 S22G31    30.09F
AUSTIN         MOCLDY    74  72  93 S3        30.12F
BROWNSVILLE    PTCLDY    78  76  93 S7        30.10F
CORPUS CHRISTI PTCLDY    80  78  94 SE7       30.10F
DALLAS FTW     PTCLDY    81  71  71 S17       30.08S
DEL RIO        CLEAR     78  71  79 SE10      30.05F
EL PASO        CLOUDY    69  64  84 SE3       30.11F
HOUSTON INT    PTCLDY    79  77  94 CALM      30.13F
LUBBOCK        CLOUDY    71  60  68 SW15      30.14F
SAN ANGELO     CLEAR     77  68  73 S12       30.10F
SAN ANTONIO    MOCLDY    76  73  91 SE8       30.13F
WACO           CLEAR     77  74  90 S10       30.12S
WICHITA FALLS  NOT AVBL
$$
...OTHER LOCATIONS IN NEW MEXICO...

CITY           SKY/WX    TMP DP  RH WIND       PRES   REMARKS
ALAMAGORDO     MOCLDY    68  59  73 S5        30.13F
ALBUQUERQUE    PTCLDY    64  51  62 N5        30.23F
CANNON AFB     CLOUDY    69  58  67 W8        30.14F
CLOVIS         CLOUDY    70  55  60 SW9       30.13F
HOLLOMAN AFB   PTCLDY    73  58  58 S10       30.10F
ROSWELL        MOCLDY    65  61  87 SW10      30.14R
RUIDOSO          N/A     61  41  48 NW6       30.30F
SANTA FE       CLOUDY    56  48  74 S3        30.26R
TRUTH OR CONSE CLEAR     68  46  45 NW7       30.18S
TUCUMCARI      MOCLDY    72  60  66 S20       30.07F
$$

USA.gov is the U.S. government's official web portal to all federal, state and local government web resources and services.